Location: Dumpton Point
(51.3500°N, 1.4433°E)
Time: 05:49:39
(UTC+00:00)

Altair - Pass Details

Date: 04 October 2022
Orbit: 1501 x 1682 km, 47.2° (Epoch: 26 November)

Event Time Altitude Azimuth Distance (km) Brightness Sun altitude
Rises 08:13:09 0° 272° (W) 4,847 9.6 18.6°
Reaches altitude 10° 08:16:16 10° 270° (W) 3,881 9.2 19.0°
Maximum altitude 08:26:08 68° 190° (S) 1,777 8.4 20.3°
Drops below altitude 10° 08:36:11 10° 111° (ESE) 3,944 11.3 21.5°
Sets 08:39:22 0° 109° (ESE) 4,929 11.4 21.9°
